Weather History for Delaware, OH

Change the Weather History Date:

Wednesday, August 7, 2013

  Actual Average Record
Temperature  
Mean Temperature 72 °F -  
Max Temperature 82 °F 80 °F 95 °F (1938)
Min Temperature 62 °F 59 °F 49 °F (1971)
Cooling Degree Days 7    
Growing Degree Days 22 (Base 50)    
Moisture  
Dew Point 66 °F    
Average Humidity 79    
Maximum Humidity 94    
Minimum Humidity 62    
Precipitation  
Precipitation 0.00 in - - ()
Sea Level Pressure  
Sea Level Pressure 29.94 in    
Wind  
Wind Speed 3 mph (SSW)    
Max Wind Speed 9 mph    
Max Gust Speed -    
Visibility 8 miles    
Events      
Averages and records for this station are not official NWS values.
T = Trace of Precipitation, MM = Missing Value Source: NWS Daily Summary

Daily Weather History Graph

Daily Weather History Graph

Search for Another Location

Airport:

Trip Planner

Search our weather history database for the weather conditions in past years. The results will help you decide how hot, cold, wet, or windy it might be!

Date:

Astronomy

Aug. 07, 2013 Rise Set
Actual Time 6:36 AM EDT 8:39 PM EDT
Civil Twilight 6:06 AM EDT 9:09 PM EDT
Nautical Twilight 5:29 AM EDT 9:45 PM EDT
Astronomical Twilight 4:49 AM EDT 10:25 PM EDT
Moon 7:23 AM EDT (8/7) 8:46 PM EDT (8/7)
Length of Visible Light 15h 03m
Length of Day
14h 03m
New Moon, 1% of the Moon is Illuminated
Aug 7
New Moon
Aug 14
First Quarter
Aug 20
Full
Aug 28
Last Quarter
Sep 5
New

Hourly Weather History & Observations

Time (EDT) Temp. Heat Index Dew Point Humidity Pressure Visibility Wind Dir Wind Speed Gust Speed Precip Events Conditions
12:16 AM 62.6 °F - 60.8 °F 94% 29.97 in 10.0 mi SSE 3.5 mph - N/A   Clear
12:35 AM 62.6 °F - 59.0 °F 88% 29.97 in 10.0 mi Calm Calm - N/A   Clear
12:56 AM 62.6 °F - 59.0 °F 88% 29.97 in 10.0 mi Calm Calm - N/A   Clear
1:16 AM 62.6 °F - 59.0 °F 88% 29.97 in 10.0 mi Calm Calm - N/A   Clear
1:35 AM 62.6 °F - 60.8 °F 94% 29.97 in 10.0 mi Calm Calm - N/A   Clear
1:56 AM 62.6 °F - 60.8 °F 94% 29.96 in 10.0 mi SSE 3.5 mph - N/A   Clear
2:16 AM 64.4 °F - 60.8 °F 88% 29.96 in 10.0 mi SSE 4.6 mph - N/A   Clear
2:35 AM 62.6 °F - 60.8 °F 94% 29.97 in 10.0 mi Calm Calm - N/A   Clear
2:56 AM 62.6 °F - 60.8 °F 94% 29.97 in 10.0 mi Calm Calm - N/A   Mostly Cloudy
3:15 AM 66.2 °F - 60.8 °F 83% 29.96 in 10.0 mi South 3.5 mph - N/A   Overcast
3:36 AM 66.2 °F - 60.8 °F 83% 29.95 in 10.0 mi South 4.6 mph - N/A   Scattered Clouds
3:56 AM 66.2 °F - 60.8 °F 83% 29.96 in 10.0 mi South 3.5 mph - N/A   Clear
4:15 AM 66.2 °F - 60.8 °F 83% 29.95 in 10.0 mi South 3.5 mph - N/A   Clear
4:36 AM 66.2 °F - 62.6 °F 88% 29.95 in 10.0 mi Calm Calm - N/A   Mostly Cloudy
4:56 AM 66.2 °F - 62.6 °F 88% 29.95 in 10.0 mi South 3.5 mph - N/A   Scattered Clouds
5:15 AM 66.2 °F - 62.6 °F 88% 29.95 in 10.0 mi Calm Calm - N/A   Clear
5:36 AM 64.4 °F - 62.6 °F 94% 29.95 in 10.0 mi Calm Calm - N/A   Clear
5:56 AM 64.4 °F - 62.6 °F 94% 29.94 in 10.0 mi SE 3.5 mph - N/A   Clear
6:15 AM 64.4 °F - 62.6 °F 94% 29.94 in 10.0 mi Calm Calm - N/A   Clear
6:36 AM 62.6 °F - 60.8 °F 94% 29.95 in 10.0 mi Calm Calm - N/A   Scattered Clouds
6:56 AM 64.4 °F - 62.6 °F 94% 29.94 in 10.0 mi SE 3.5 mph - N/A   Mostly Cloudy
7:15 AM 66.2 °F - 62.6 °F 88% 29.95 in 10.0 mi Calm Calm - N/A   Overcast
7:36 AM 66.2 °F - 62.6 °F 88% 29.94 in 10.0 mi SE 3.5 mph - N/A   Overcast
7:56 AM 68.0 °F - 62.6 °F 83% 29.95 in 10.0 mi South 3.5 mph - N/A   Mostly Cloudy
8:15 AM 68.0 °F - 64.4 °F 88% 29.96 in 10.0 mi Calm Calm - N/A   Mostly Cloudy
8:36 AM 68.0 °F - 64.4 °F 88% 29.95 in 10.0 mi South 3.5 mph - N/A   Overcast
8:56 AM 69.8 °F - 64.4 °F 83% 29.95 in 10.0 mi South 3.5 mph - N/A   Mostly Cloudy
9:15 AM 69.8 °F - 64.4 °F 83% 29.96 in 10.0 mi SSW 4.6 mph - N/A   Overcast
9:36 AM 71.6 °F - 64.4 °F 78% 29.96 in 10.0 mi SSW 3.5 mph - N/A   Overcast
9:56 AM 71.6 °F - 66.2 °F 83% 29.97 in 10.0 mi SSW 4.6 mph - N/A   Mostly Cloudy
10:15 AM 73.4 °F - 68.0 °F 83% 29.96 in 10.0 mi SSW 5.8 mph - N/A   Scattered Clouds
10:36 AM 77.0 °F - 69.8 °F 78% 29.96 in 7.0 mi SSW 5.8 mph - N/A   Scattered Clouds
10:56 AM 77.0 °F - 69.8 °F 78% 29.96 in 7.0 mi SSW 5.8 mph - N/A   Scattered Clouds
11:15 AM 77.0 °F - 69.8 °F 78% 29.96 in 7.0 mi SW 6.9 mph - N/A   Unknown
11:36 AM 78.8 °F - 69.8 °F 74% 29.96 in 7.0 mi SSW 4.6 mph - N/A   Mostly Cloudy
11:56 AM 80.6 °F 83.9 °F 69.8 °F 70% 29.96 in 7.0 mi South 6.9 mph - N/A   Mostly Cloudy
12:15 PM 80.6 °F 83.9 °F 69.8 °F 70% 29.95 in 7.0 mi South 9.2 mph - N/A   Mostly Cloudy
12:36 PM 80.6 °F 83.9 °F 69.8 °F 70% 29.95 in 10.0 mi SSW 4.6 mph - N/A   Scattered Clouds
12:56 PM 80.6 °F 83.2 °F 68.0 °F 65% 29.95 in 10.0 mi SSW 9.2 mph - N/A   Scattered Clouds
1:15 PM 82.4 °F 85.4 °F 68.0 °F 62% 29.95 in 10.0 mi SSW 6.9 mph - N/A   Clear
1:36 PM 82.4 °F 85.4 °F 68.0 °F 62% 29.94 in 10.0 mi SSW 6.9 mph - N/A   Mostly Cloudy
1:56 PM 82.4 °F 85.4 °F 68.0 °F 62% 29.95 in 7.0 mi SW 6.9 mph - N/A   Overcast
2:15 PM 82.4 °F 85.4 °F 68.0 °F 62% 29.94 in 7.0 mi SSW 4.6 mph - N/A   Mostly Cloudy
2:36 PM 80.6 °F 83.2 °F 68.0 °F 65% 29.94 in 10.0 mi SSW 5.8 mph - N/A   Overcast
2:56 PM 80.6 °F 83.9 °F 69.8 °F 70% 29.94 in 7.0 mi SW 5.8 mph - N/A   Overcast
3:16 PM 82.4 °F 86.3 °F 69.8 °F 66% 29.93 in 10.0 mi SW 6.9 mph - N/A   Mostly Cloudy
3:36 PM 82.4 °F 85.4 °F 68.0 °F 62% 29.92 in 10.0 mi South 8.1 mph - N/A   Mostly Cloudy
3:55 PM 82.4 °F 85.4 °F 68.0 °F 62% 29.92 in 10.0 mi SSW 5.8 mph - N/A   Mostly Cloudy
4:16 PM 82.4 °F 85.4 °F 68.0 °F 62% 29.91 in 10.0 mi SW 6.9 mph - N/A   Scattered Clouds
4:36 PM 82.4 °F 85.4 °F 68.0 °F 62% 29.90 in 7.0 mi SSW 8.1 mph - N/A   Scattered Clouds
4:55 PM 82.4 °F 85.4 °F 68.0 °F 62% 29.90 in 7.0 mi SW 5.8 mph - N/A   Scattered Clouds
5:16 PM 80.6 °F 83.2 °F 68.0 °F 65% 29.91 in 7.0 mi SW 5.8 mph - N/A   Scattered Clouds
5:36 PM 80.6 °F 83.2 °F 68.0 °F 65% 29.90 in 7.0 mi SSW 4.6 mph - N/A   Mostly Cloudy
5:55 PM 80.6 °F 83.2 °F 68.0 °F 65% 29.91 in 7.0 mi SW 6.9 mph - N/A   Scattered Clouds
6:16 PM 80.6 °F 83.2 °F 68.0 °F 65% 29.91 in 7.0 mi SW 6.9 mph - N/A   Scattered Clouds
6:36 PM 80.6 °F 83.2 °F 68.0 °F 65% 29.90 in 7.0 mi SSW 6.9 mph - N/A   Scattered Clouds
6:55 PM 80.6 °F 83.2 °F 68.0 °F 65% 29.90 in 7.0 mi SSW 4.6 mph - N/A   Clear
7:16 PM 78.8 °F - 68.0 °F 69% 29.91 in 7.0 mi SW 4.6 mph - N/A   Scattered Clouds
7:36 PM 78.8 °F - 68.0 °F 69% 29.92 in 7.0 mi SSW 4.6 mph - N/A   Scattered Clouds
7:55 PM 78.8 °F - 68.0 °F 69% 29.92 in 7.0 mi Calm Calm - N/A   Scattered Clouds
8:16 PM 77.0 °F - 68.0 °F 74% 29.92 in 7.0 mi SSW 3.5 mph - N/A   Scattered Clouds
8:36 PM 77.0 °F - 68.0 °F 74% 29.92 in 7.0 mi Calm Calm - N/A   Scattered Clouds
8:55 PM 73.4 °F - 68.0 °F 83% 29.92 in 7.0 mi Calm Calm - N/A   Scattered Clouds
9:16 PM 73.4 °F - 68.0 °F 83% 29.92 in 7.0 mi Calm Calm - N/A   Clear
9:36 PM 71.6 °F - 68.0 °F 88% 29.93 in 5.0 mi Calm Calm - N/A   Clear
9:55 PM 71.6 °F - 68.0 °F 88% 29.94 in 5.0 mi Calm Calm - N/A   Scattered Clouds
10:16 PM 71.6 °F - 68.0 °F 88% 29.94 in 5.0 mi Calm Calm - N/A   Mostly Cloudy
10:36 PM 71.6 °F - 68.0 °F 88% 29.95 in 7.0 mi South 3.5 mph - N/A   Scattered Clouds
10:55 PM 71.6 °F - 68.0 °F 88% 29.95 in 5.0 mi Calm Calm - N/A   Scattered Clouds
11:16 PM 69.8 °F - 68.0 °F 94% 29.95 in 5.0 mi South 3.5 mph - N/A   Mostly Cloudy
11:36 PM 71.6 °F - 68.0 °F 88% 29.95 in 5.0 mi SSE 4.6 mph - N/A   Mostly Cloudy
11:55 PM 71.6 °F - 68.0 °F 88% 29.95 in 5.0 mi SSE 4.6 mph - N/A   Scattered Clouds